Regional Weather Roundup
Issued by NWS Mt. Holly, NJ

Home | Current Version | Previous Version | Text Only | Print | Product List | Glossary On
Versions: 1 2 3 4 5 6 7 8 9 10 11 12 13 14 15 16 17 18 19 20 21 22 23 24 25 26 27 28 29 30 31 32 33 34 35 36 37 38 39 40 41 42 43 44 45 46 47 48 49 50
000
ASUS41 KPHI 011812
RWRPHI

REGIONAL WEATHER ROUNDUP
NATIONAL WEATHER SERVICE MOUNT HOLLY NJ
200 PM EDT SAT AUG 01 2015

NOTE:  "FAIR" INDICATES FEW OR NO CLOUDS BELOW 12,000 FEET WITH NO
SIGNIFICANT WEATHER AND/OR OBSTRUCTIONS TO VISIBILITY.

 * = STATION DOES NOT REPORT PRECIPITATION (E.G. RAIN, SNOW, ETC.)
        OR FOG.

NJZ015>026-011900-
SOUTHERN NEW JERSEY

CITY           SKY/WX    TMP DP  RH WIND       PRES   REMARKS
POMONA         MOSUNNY   89  64  43 W14G23    29.84F HX  90
6HR MIN TEMP:  76; 6HR MAX TEMP:  90;

RIO GRANDE*    SUNNY     90  66  45 W9        29.86S HX  92
MILLVILLE      SUNNY     89  58  34 W7        29.85F
WRIGHTSTOWN    SUNNY     88  56  33 W10       29.80F
MOUNT HOLLY    PTSUNNY   87  56  34 W13G18    29.82F
TRENTON        MOSUNNY   87  56  34 W10G21    29.82F
6HR MIN TEMP:  74; 6HR MAX TEMP:  88;


$$
NJZ001>014-011900-
NORTHERN NEW JERSEY

CITY           SKY/WX    TMP DP  RH WIND       PRES   REMARKS
SUSSEX         PTSUNNY   83  57  41 VRB5      29.81F
ANDOVER*         N/A     84  58  40 SW7G17    29.82F
MORRISTOWN     MOSUNNY   90  57  33 W10G20    29.81F
NEWARK         MOSUNNY   90  53  28 W20G26    29.79F
TETERBORO      SUNNY     89  55  31 W13       29.77F
CALDWELL       MOSUNNY   87  56  34 W13G21    29.79F
SOMERVILLE     MOSUNNY   87  56  34 VRB6      29.79F
ALLAIRE*       MOSUNNY   88  59  37 W13       29.82F
TOMS RIVER*      N/A     90  57  33 W10G17    29.82F

$$
PAZ043-044-047-054-055-060>062-066>071-011900-
EASTERN PENNSYLVANIA

CITY           SKY/WX    TMP DP  RH WIND       PRES   REMARKS
PHILADELPHIA   PTSUNNY   88  55  32 W13G23    29.84F
6HR MIN TEMP:  78; 6HR MAX TEMP:  90;

NORTH PHILA    PTSUNNY   91  53  27 W20       29.84F
BLUE BELL      MOSUNNY   86  61  42 W7G23     29.83F
DOYLESTOWN     SUNNY     84  55  36 SW10G21   29.83F
QUAKERTOWN*    SUNNY     84  59  42 W12       29.85F
POTTSTOWN      SUNNY     84  55  36 W8G24     29.86F
LANCASTER      PTSUNNY   83  57  41 W14       29.86F
COATESVILLE    MOSUNNY   84  59  42 W12G18    29.88F
READING        MOSUNNY   86  54  33 W12       29.84F
6HR MIN TEMP:  73; 6HR MAX TEMP:  86;

ALLENTOWN      SUNNY     84  60  44 W13       29.83F
6HR MIN TEMP:  72; 6HR MAX TEMP:  85;

MOUNT POCONO   CLOUDY    71  59  65 NW3       29.90S
6HR MIN TEMP:  67; 6HR MAX TEMP:  77;

HAZLETON       PTSUNNY   79  55  44 W6        29.92S
WILKES BARRE   PTSUNNY   81  57  43 W5        29.85F

$$
DEZALL-MDZ008-012-015-019-020-011900-
DELAWARE AND EASTERN MARYLAND

CITY           SKY/WX    TMP DP  RH WIND       PRES   REMARKS
WILMINGTON     MOSUNNY   87  62  43 W12       29.85F
6HR MIN TEMP:  76; 6HR MAX TEMP:  88;

DOVER          MOSUNNY   88  69  54 W10       29.84F HX  92
GEORGETOWN     MOSUNNY   90  62  39 SW10      29.86F HX  90
6HR MIN TEMP:  75; 6HR MAX TEMP:  91;

EASTON         MOSUNNY   88  66  48 NW10      29.90F HX  90
PATUXENT       MOSUNNY   88  61  40 SW10      29.87F
OCEAN CITY     MOSUNNY   89  71  55 S12G20    29.85F HX  95
WALLOPS ISLAND SUNNY     89  69  51 W8        29.88F HX  93
CAMBRIDGE      SUNNY     90  63  40 CALM      29.86F HX  90
SALISBURY      SUNNY     89  64  43 SW10      29.86F HX  90

$$
PAZ001-021-NYZ056-072-MDZ011-DCZ001-011900-
OTHER NEARBY LOCATIONS

CITY           SKY/WX    TMP DP  RH WIND       PRES   REMARKS
HARRISBURG     MOSUNNY   87  53  31 NW10      29.85F
STATE COLLEGE  PTSUNNY   75  55  50 NW7       29.92S
WILLIAMSPORT   PTSUNNY   81  54  39 NW9       29.85S
BINGHAMTON     SUNNY     74  54  49 W12G18    29.87F
NEW YORK CITY  SUNNY     88  53  30 W12G20    29.82F
BALTIMORE      PTSUNNY   88  60  38 W9        29.86F
WASHINGTON DC  PTSUNNY   89  65  44 NW8       29.87F HX  91

$$


USA.gov is the U.S. government's official web portal to all federal, state and local government web resources and services.